| time (UTC) | temp C | wind direction | speed KPH | gust KPH | rain 1hr cm | rain 24hr cm | rain mn cm | humidity % | barometer mb |
| 20260504043503 | 3 | 256 | 1.6 | 4.8 | 0.00 | 0.00 | 0.00 | 52 | 1004.7 |
| 20260504043004 | 3 | 256 | 4.8 | 4.8 | 0.00 | 0.00 | 0.00 | 52 | 1004.7 |
| 20260504042504 | 3 | 256 | 0.0 | 4.8 | 0.00 | 0.00 | 0.00 | 52 | 1004.7 |
| 20260504041504 | 3 | 256 | 1.6 | 8.0 | 0.00 | 0.00 | 0.00 | 51 | 1004.8 |
| 20260504041004 | 3 | 256 | 3.2 | 4.8 | 0.00 | 0.00 | 0.00 | 50 | 1004.9 |
| 20260504040503 | 4 | 256 | 1.6 | 4.8 | 0.00 | 0.00 | 0.00 | 51 | 1004.9 |
| 20260504040003 | 4 | 256 | 1.6 | 4.8 | 0.00 | 0.00 | 0.00 | 50 | 1005.0 |
| 20260504035003 | 5 | 256 | 0.0 | 4.8 | 0.00 | 0.00 | 0.00 | 49 | 1004.8 |
| 20260504034504 | 5 | 256 | 3.2 | 4.8 | 0.00 | 0.00 | 0.00 | 49 | 1004.8 |
| 20260504033504 | 5 | 256 | 4.8 | 8.0 | 0.00 | 0.00 | 0.00 | 47 | 1004.8 |
| 20260504033003 | 6 | 256 | 0.0 | 4.8 | 0.00 | 0.00 | 0.00 | 47 | 1004.7 |
| 20260504032503 | 6 | 256 | 0.0 | 0.0 | 0.00 | 0.00 | 0.00 | 46 | 1004.6 |
| 20260504031504 | 6 | 256 | 0.0 | 0.0 | 0.00 | 0.00 | 0.00 | 45 | 1004.6 |
| 20260504031003 | 6 | 256 | 0.0 | 0.0 | 0.00 | 0.00 | 0.00 | 45 | 1004.5 |
| 20260504030503 | 6 | 256 | 0.0 | 4.8 | 0.00 | 0.00 | 0.00 | 44 | 1004.5 |
| 20260504030004 | 7 | 256 | 3.2 | 4.8 | 0.00 | 0.00 | 0.00 | 43 | 1004.5 |
| 20260504025503 | 7 | 256 | 3.2 | 8.0 | 0.00 | 0.00 | 0.00 | 44 | 1004.4 |
| 20260504025005 | 7 | 256 | 0.0 | 0.0 | 0.00 | 0.00 | 0.00 | 43 | 1004.4 |
| 20260504024503 | 7 | 256 | 3.2 | 4.8 | 0.00 | 0.00 | 0.00 | 42 | 1004.3 |
| 20260504024003 | 8 | 256 | 1.6 | 4.8 | 0.00 | 0.00 | 0.00 | 41 | 1004.3 |
| 20260504023503 | 8 | 256 | 4.8 | 4.8 | 0.00 | 0.00 | 0.00 | 41 | 1004.2 |
| 20260504023004 | 8 | 256 | 3.2 | 4.8 | 0.00 | 0.00 | 0.00 | 39 | 1004.2 |
| 20260504022504 | 9 | 256 | 0.0 | 0.0 | 0.00 | 0.00 | 0.00 | 39 | 1004.1 |
| 20260504022003 | 9 | 256 | 0.0 | 3.2 | 0.00 | 0.00 | 0.00 | 38 | 1004.1 |
| 20260504021004 | 10 | 256 | 0.0 | 3.2 | 0.00 | 0.00 | 0.00 | 37 | 1004.0 |
| 20260504020004 | 11 | 256 | 0.0 | 0.0 | 0.00 | 0.00 | 0.00 | 34 | 1003.9 |
| 20260504015504 | 11 | 256 | 0.0 | 0.0 | 0.00 | 0.00 | 0.00 | 33 | 1003.8 |
| 20260504015004 | 11 | 256 | 0.0 | 0.0 | 0.00 | 0.00 | 0.00 | 32 | 1003.7 |
| 20260504014504 | 11 | 256 | 0.0 | 0.0 | 0.00 | 0.00 | 0.00 | 33 | 1003.3 |
| 20260504014004 | 12 | 256 | 0.0 | 0.0 | 0.00 | 0.00 | 0.00 | 31 | 1003.3 |
| 20260504013504 | 12 | 256 | 0.0 | 0.0 | 0.00 | 0.00 | 0.00 | 31 | 1003.2 |
| 20260504013004 | 12 | 256 | 0.0 | 0.0 | 0.00 | 0.00 | 0.00 | 31 | 1003.3 |
| 20260504012504 | 12 | 256 | 0.0 | 0.0 | 0.00 | 0.00 | 0.00 | 31 | 1003.3 |
| 20260504012004 | 12 | 256 | 0.0 | 4.8 | 0.00 | 0.00 | 0.00 | 31 | 1003.3 |
| 20260504011503 | 12 | 256 | 4.8 | 8.0 | 0.00 | 0.00 | 0.00 | 31 | 1003.4 |
| 20260504011003 | 12 | 256 | 4.8 | 8.0 | 0.00 | 0.00 | 0.00 | 31 | 1003.4 |
| 20260504010504 | 12 | 246 | 4.8 | 11.3 | 0.00 | 0.00 | 0.00 | 30 | 1003.4 |
| 20260504010004 | 12 | 237 | 8.0 | 14.5 | 0.00 | 0.00 | 0.00 | 30 | 1003.3 |
| 20260504005504 | 12 | 235 | 3.2 | 9.7 | 0.00 | 0.00 | 0.00 | 30 | 1003.4 |
| 20260504005004 | 12 | 255 | 11.3 | 24.1 | 0.00 | 0.00 | 0.00 | 30 | 1003.6 |
| 20260504004503 | 13 | 246 | 14.5 | 22.5 | 0.00 | 0.00 | 0.00 | 30 | 1003.5 |
| 20260504004004 | 13 | 263 | 6.4 | 25.7 | 0.00 | 0.00 | 0.00 | 30 | 1003.5 |
| 20260504003504 | 13 | 234 | 19.3 | 25.7 | 0.00 | 0.00 | 0.00 | 29 | 1003.5 |
| 20260504003004 | 13 | 261 | 20.9 | 33.8 | 0.00 | 0.00 | 0.00 | 29 | 1003.6 |
| 20260504002503 | 13 | 244 | 17.7 | 32.2 | 0.00 | 0.00 | 0.00 | 30 | 1003.5 |
| 20260504002004 | 13 | 249 | 19.3 | 32.2 | 0.00 | 0.00 | 0.00 | 30 | 1003.7 |
| 20260504001504 | 13 | 245 | 16.1 | 32.2 | 0.00 | 0.00 | 0.00 | 30 | 1003.9 |
| 20260504001004 | 13 | 246 | 17.7 | 27.4 | 0.00 | 0.00 | 0.00 | 30 | 1003.8 |
| 20260504000504 | 13 | 250 | 19.3 | 32.2 | 0.00 | 0.00 | 0.00 | 29 | 1003.8 |
| 20260504000004 | 13 | 237 | 16.1 | 32.2 | 0.00 | 0.00 | 0.00 | 29 | 1003.8 |
| 20260503235503 | 13 | 238 | 16.1 | 38.6 | 0.00 | 0.00 | 0.00 | 28 | 1003.9 |
| 20260503235003 | 14 | 243 | 19.3 | 32.2 | 0.00 | 0.00 | 0.00 | 26 | 1004.0 |
| 20260503234504 | 15 | 232 | 20.9 | 32.2 | 0.00 | 0.00 | 0.00 | 24 | 1003.8 |
| 20260503234004 | 16 | 273 | 8.0 | 25.7 | 0.00 | 0.00 | 0.00 | 20 | 1003.9 |
| 20260503233503 | 16 | 274 | 16.1 | 27.4 | 0.00 | 0.00 | 0.00 | 20 | 1003.8 |
| 20260503233004 | 15 | 272 | 14.5 | 32.2 | 0.00 | 0.00 | 0.00 | 21 | 1003.9 |
| 20260503232504 | 15 | 261 | 4.8 | 16.1 | 0.00 | 0.00 | 0.00 | 23 | 1003.8 |
| 20260503232004 | 15 | 297 | 4.8 | 12.9 | 0.00 | 0.00 | 0.00 | 24 | 1003.9 |
| 20260503231504 | 15 | 243 | 4.8 | 16.1 | 0.00 | 0.00 | 0.00 | 23 | 1003.5 |
| 20260503231004 | 15 | 28 | 3.2 | 22.5 | 0.00 | 0.00 | 0.00 | 23 | 1003.6 |
| 20260503230503 | 15 | 337 | 9.7 | 16.1 | 0.00 | 0.00 | 0.00 | 23 | 1003.8 |
| 20260503230004 | 15 | 148 | 4.8 | 14.5 | 0.00 | 0.00 | 0.00 | 22 | 1003.8 |
| 20260503225503 | 15 | 180 | 9.7 | 20.9 | 0.00 | 0.00 | 0.00 | 24 | 1004.0 |
| 20260503224504 | 13 | 245 | 14.5 | 29.0 | 0.00 | 0.00 | 0.00 | 26 | 1004.0 |
| 20260503224004 | 14 | 246 | 29.0 | 41.8 | 0.00 | 0.00 | 0.00 | 25 | 1004.1 |
| 20260503223504 | 14 | 255 | 17.7 | 24.1 | 0.00 | 0.00 | 0.00 | 25 | 1004.1 |
| 20260503223004 | 15 | 231 | 17.7 | 32.2 | 0.00 | 0.00 | 0.00 | 24 | 1003.9 |
| 20260503222504 | 15 | 233 | 20.9 | 33.8 | 0.00 | 0.00 | 0.00 | 23 | 1003.8 |
| 20260503221004 | 15 | 241 | 4.8 | 29.0 | 0.00 | 0.00 | 0.00 | 18 | 1004.2 |
| 20260503220004 | 16 | 242 | 12.9 | 19.3 | 0.00 | 0.00 | 0.00 | 17 | 1004.2 |
| 20260503215504 | 16 | 261 | 4.8 | 9.7 | 0.00 | 0.00 | 0.00 | 17 | 1004.2 |
| 20260503215003 | 16 | 284 | 3.2 | 11.3 | 0.00 | 0.00 | 0.00 | 17 | 1004.2 |
| 20260503214504 | 16 | 335 | 14.5 | 22.5 | 0.00 | 0.00 | 0.00 | 18 | 1004.3 |
| 20260503214004 | 16 | 275 | 9.7 | 19.3 | 0.00 | 0.00 | 0.00 | 19 | 1004.3 |
| 20260503212504 | 17 | 294 | 8.0 | 35.4 | 0.00 | 0.00 | 0.00 | 16 | 1004.6 |
| 20260503212004 | 17 | 310 | 11.3 | 32.2 | 0.00 | 0.00 | 0.00 | 17 | 1004.5 |
| 20260503211504 | 17 | 321 | 14.5 | 29.0 | 0.00 | 0.00 | 0.00 | 17 | 1004.7 |
| 20260503211003 | 17 | 300 | 11.3 | 29.0 | 0.00 | 0.00 | 0.00 | 16 | 1004.7 |
| 20260503210504 | 18 | 289 | 6.4 | 24.1 | 0.00 | 0.00 | 0.00 | 16 | 1004.6 |
| 20260503210005 | 18 | 258 | 8.0 | 24.1 | 0.00 | 0.00 | 0.00 | 16 | 1004.8 |
| 20260503205503 | 18 | 331 | 20.9 | 35.4 | 0.00 | 0.00 | 0.00 | 18 | 1004.8 |
| 20260503204504 | 16 | 236 | 16.1 | 29.0 | 0.00 | 0.00 | 0.00 | 16 | 1005.0 |
| 20260503203503 | 17 | 259 | 19.3 | 38.6 | 0.00 | 0.00 | 0.00 | 16 | 1005.0 |
| 20260503203004 | 17 | 245 | 16.1 | 27.4 | 0.00 | 0.00 | 0.00 | 15 | 1005.2 |
| 20260503202504 | 17 | 240 | 16.1 | 25.7 | 0.00 | 0.00 | 0.00 | 16 | 1005.6 |
| 20260503202004 | 18 | 244 | 19.3 | 41.8 | 0.00 | 0.00 | 0.00 | 14 | 1005.5 |
| 20260503201503 | 18 | 248 | 11.3 | 37.0 | 0.00 | 0.00 | 0.00 | 14 | 1005.4 |
| 20260503201004 | 17 | 344 | 11.3 | 32.2 | 0.00 | 0.00 | 0.00 | 15 | 1005.7 |
| 20260503200504 | 17 | 271 | 20.9 | 41.8 | 0.00 | 0.00 | 0.00 | 15 | 1005.7 |
| 20260503200004 | 17 | 271 | 16.1 | 37.0 | 0.00 | 0.00 | 0.00 | 15 | 1005.8 |
| 20260503195004 | 17 | 263 | 16.1 | 32.2 | 0.00 | 0.00 | 0.00 | 16 | 1005.8 |
| 20260503194504 | 17 | 273 | 17.7 | 35.4 | 0.00 | 0.00 | 0.00 | 16 | 1006.1 |
| 20260503194004 | 17 | 275 | 22.5 | 41.8 | 0.00 | 0.00 | 0.00 | 15 | 1006.2 |
| 20260503193504 | 17 | 270 | 19.3 | 33.8 | 0.00 | 0.00 | 0.00 | 15 | 1006.1 |
| 20260503193004 | 17 | 278 | 20.9 | 38.6 | 0.00 | 0.00 | 0.00 | 15 | 1006.2 |
| 20260503192003 | 17 | 296 | 22.5 | 33.8 | 0.00 | 0.00 | 0.00 | 16 | 1006.2 |
| 20260503191504 | 16 | 273 | 19.3 | 25.7 | 0.00 | 0.00 | 0.00 | 18 | 1006.3 |
| 20260503191004 | 16 | 232 | 27.4 | 45.1 | 0.00 | 0.00 | 0.00 | 16 | 1006.2 |
| 20260503190504 | 17 | 244 | 12.9 | 27.4 | 0.00 | 0.00 | 0.00 | 17 | 1006.3 |
| 20260503190004 | 16 | 300 | 12.9 | 27.4 | 0.00 | 0.00 | 0.00 | 18 | 1006.3 |
| 20260503185504 | 16 | 293 | 19.3 | 32.2 | 0.00 | 0.00 | 0.00 | 17 | 1006.5 |
| 20260503185004 | 16 | 277 | 24.1 | 38.6 | 0.00 | 0.00 | 0.00 | 17 | 1006.8 |
| 20260503184004 | 16 | 265 | 17.7 | 37.0 | 0.00 | 0.00 | 0.00 | 18 | 1006.8 |
| 20260503183503 | 15 | 267 | 17.7 | 27.4 | 0.00 | 0.00 | 0.00 | 18 | 1007.0 |
| 20260503183004 | 15 | 252 | 14.5 | 37.0 | 0.00 | 0.00 | 0.00 | 17 | 1007.1 |
| 20260503182504 | 15 | 282 | 20.9 | 38.6 | 0.00 | 0.00 | 0.00 | 18 | 1007.5 |
| 20260503181504 | 15 | 260 | 20.9 | 37.0 | 0.00 | 0.00 | 0.00 | 19 | 1007.5 |
| 20260503181004 | 14 | 253 | 14.5 | 22.5 | 0.00 | 0.00 | 0.00 | 19 | 1007.5 |
| 20260503180004 | 13 | 269 | 11.3 | 25.7 | 0.00 | 0.00 | 0.00 | 19 | 1007.6 |
| 20260503175504 | 13 | 262 | 12.9 | 24.1 | 0.00 | 0.00 | 0.00 | 20 | 1007.7 |
| 20260503175004 | 13 | 265 | 9.7 | 22.5 | 0.00 | 0.00 | 0.00 | 21 | 1007.7 |
| 20260503174503 | 13 | 254 | 12.9 | 24.1 | 0.00 | 0.00 | 0.00 | 21 | 1007.7 |
| 20260503174004 | 13 | 311 | 4.8 | 16.1 | 0.00 | 0.00 | 0.00 | 23 | 1007.9 |
| 20260503173503 | 13 | 253 | 8.0 | 16.1 | 0.00 | 0.00 | 0.00 | 24 | 1008.0 |
| 20260503173003 | 13 | 238 | 8.0 | 19.3 | 0.00 | 0.00 | 0.00 | 24 | 1008.1 |
| 20260503151004 | 13 | 236 | 9.7 | 22.5 | 0.00 | 0.00 | 0.00 | 22 | 1008.8 |
| 20260503150504 | 13 | 256 | 8.0 | 20.9 | 0.00 | 0.00 | 0.00 | 21 | 1008.9 |
| 20260503130503 | 0 | 348 | 1.6 | 3.2 | 0.00 | 0.00 | 0.00 | 69 | 1010.5 |
| 20260503110504 | -1 | 348 | 0.0 | 0.0 | 0.00 | 0.00 | 0.00 | 69 | 1010.0 |
| 20260503090504 | 0 | 348 | 0.0 | 1.6 | 0.00 | 0.00 | 0.00 | 63 | 1011.0 |
| 20260503081504 | 0 | 348 | 0.0 | 3.2 | 0.00 | 0.00 | 0.00 | 60 | 1011.2 |
| 20260503081004 | 0 | 348 | 1.6 | 4.8 | 0.00 | 0.00 | 0.00 | 60 | 1011.2 |
| 20260503072003 | 1 | 348 | 1.6 | 3.2 | 0.00 | 0.00 | 0.00 | 58 | 1011.9 |
| 20260503071503 | 1 | 348 | 3.2 | 4.8 | 0.00 | 0.00 | 0.00 | 58 | 1011.9 |
| 20260503071004 | 1 | 348 | 4.8 | 4.8 | 0.00 | 0.00 | 0.00 | 57 | 1012.0 |
| 20260503070504 | 2 | 49 | 0.0 | 1.6 | 0.00 | 0.00 | 0.00 | 57 | 1012.0 |
| 20260503055004 | 2 | 280 | 0.0 | 0.0 | 0.00 | 0.00 | 0.00 | 52 | 1012.7 |
| 20260503054503 | 2 | 280 | 0.0 | 4.8 | 0.00 | 0.00 | 0.00 | 53 | 1012.6 |
| 20260503054004 | 2 | 280 | 1.6 | 4.8 | 0.00 | 0.00 | 0.00 | 52 | 1012.7 |
| 20260503053504 | 2 | 280 | 4.8 | 4.8 | 0.00 | 0.00 | 0.00 | 51 | 1012.6 |
| 20260503053004 | 2 | 280 | 3.2 | 4.8 | 0.00 | 0.00 | 0.00 | 52 | 1012.5 |
| 20260503052504 | 2 | 280 | 3.2 | 4.8 | 0.00 | 0.00 | 0.00 | 51 | 1012.4 |
| 20260503052004 | 2 | 280 | 1.6 | 3.2 | 0.00 | 0.00 | 0.00 | 51 | 1012.3 |
| 20260503051503 | 2 | 280 | 1.6 | 4.8 | 0.00 | 0.00 | 0.00 | 50 | 1012.2 |
| 20260503051004 | 2 | 280 | 1.6 | 4.8 | 0.00 | 0.00 | 0.00 | 51 | 1012.2 |
| 20260503050504 | 3 | 280 | 1.6 | 4.8 | 0.00 | 0.00 | 0.00 | 51 | 1012.1 |
| 20260503050005 | 3 | 280 | 4.8 | 4.8 | 0.00 | 0.00 | 0.00 | 50 | 1012.1 |
| 20260503045504 | 3 | 280 | 0.0 | 3.2 | 0.00 | 0.00 | 0.00 | 50 | 1012.3 |
| 20260503045004 | 3 | 280 | 3.2 | 4.8 | 0.00 | 0.00 | 0.00 | 48 | 1012.8 |
| 20260503044504 | 3 | 280 | 3.2 | 4.8 | 0.00 | 0.00 | 0.00 | 48 | 1012.9 |